Flag for France Weather past 2 weeks in Marigot, Saint Martin, France

Now
86 °F

Passing clouds.


Feels Like: 89 °F
Forecast: 80 / 85 °F
Wind: 14 mph from East

Location: Juliana Airport - Saint Maarten

Current Time: May 24, 2015 at 2:15:31 PM

Latest Report: May 24, 2015 at 1:00 PM


Visibility: N/A

Pressure: 30.07 "Hg

Humidity: 55%

Dew point: 68 °F

Location of MarigotLocation

Historic Weather in Marigot — Graph

°F

Marigot temperature yesterday

Maximum temperature yesterday: 86 °F (at 11:00 AM)
Minimum temperature yesterday: 81 °F (at 12:00 AM)
Average temperature yesterday: 83 °F

Past Weeks' High & Low Weather Summary

 TemperatureHumidityPressure
High86 °F (May 11, 1:00 PM)94% (May 19, 9:00 AM)30.15 "Hg (May 19, 9:00 AM)
Low75 °F (May 16, 12:00 AM)40% (May 10, 2:00 PM)29.95 "Hg (May 20, 4:00 PM)
Average82 °F70%30.05 "Hg
* Reported May 9 1:00 PM — May 24 1:00 PM, Marigot, Weather by CustomWeather, © 2015

Note: Actual official high and low records may vary slightly from our data, if they occured in-between our weather recording intervals... More about our weather records

Advertising

Marigot weather history for previous 24 hours

 ConditionsComfort  
Time TempWeatherWind HumidityBarometerVisibility
1:00 PM
Sun, May 24
86 °FPassing clouds.14 mph55%30.07 "HgN/A
12:00 PM86 °FScattered clouds.16 mph59%30.07 "HgN/A
11:00 AM84 °FScattered clouds.15 mph62%30.09 "HgN/A
10:00 AM84 °FPassing clouds.14 mph58%30.09 "HgN/A
9:00 AM84 °FPassing clouds.14 mph58%30.09 "HgN/A
8:00 AM82 °FPassing clouds.13 mph66%30.09 "HgN/A
7:00 AM82 °FPassing clouds.15 mph66%30.07 "HgN/A
6:00 AM81 °FScattered clouds.15 mph70%30.07 "HgN/A
5:00 AM81 °FPassing clouds.13 mph70%30.04 "HgN/A
2:00 AM81 °FPassing clouds.12 mph70%30.07 "HgN/A
1:00 AM81 °FPassing clouds.9 mph70%30.07 "HgN/A
12:00 AM81 °FHaze.10 mph70%30.07 "HgN/A
11:00 PM
Sat, May 23
81 °FPassing clouds.12 mph74%30.09 "HgN/A
10:00 PM81 °FPassing clouds.13 mph74%30.09 "HgN/A
9:00 PM81 °FPassing clouds.10 mph74%30.09 "HgN/A
8:00 PM81 °FPassing clouds.10 mph74%30.09 "HgN/A
7:00 PM81 °FPassing clouds.12 mph74%30.09 "HgN/A
6:00 PM82 °FPassing clouds.13 mph70%30.07 "HgN/A
5:00 PM84 °FPassing clouds.13 mph66%30.07 "HgN/A
4:00 PM84 °FPassing clouds.13 mph66%30.07 "HgN/A
3:00 PM86 °FScattered clouds.14 mph62%30.09 "HgN/A
2:00 PM86 °FScattered clouds.12 mph59%30.09 "HgN/A
Weather by CustomWeather, © 2015

See weather overviewHow to use our weather pages